Showing default

NUSAT-44 MARIA MITCHELL, 59122

Orbit data source: Space-Track

NUSAT-44 MARIA MITCHELL, 59122 is a payload satellite owned by URUGUS S.A. (AR) in SSO that was launched on Mon, 04 Mar 2024 UTC via an FALCON 9 launch vehicle from the Air Force Western Test Range (AFWTR). Payloads include a variety of satellites, spacecraft, and rockets equipped with specific instruments for various scientific and technological missions. These include communications satellites like Starlink; space stations such as the ISS; scientific satellites like the Hubble; Earth observation satellites from companies like Planet Labs, Umbra, and HawkEye 360; GPS; miniature CubeSats for education and research; and military/defense satellites.

Loading next visibility...
NUSAT-44 MARIA MITCHELL details
Identifier
59122, 2024-043AA
Orbit
SSO
Last TLE update5 hours ago
Origin
Flag of ARURUGUS S.A. (AR / ARGN)
ManufacturerURUGUS S.A.
MissionOperational Commercial Imaging
Bus & MotorNEWSAT V, Unknown motor
Mass41.5 kg wet, 38.5 kg dry
Launch date (UTC)
2024-03-04 (11 months ago)
Launch vehicle
FALCON 9
Launch site
Air Force Western Test Range (AFWTR)
Object type
Payload
Rocket body
Debris
Shape & HBRBox, 0.813 m
Radar Cross Section0.542 m², Medium (>0.1 m² and < 1m²)

Expand to show TLE details & history

TLE from 5 hours ago
0 NUSAT-44 MARIA MITCHELL
1 59122U 24043AA  25023.47443946  .00024934  00000-0  88897-3 0  9990
2 59122  97.4952 152.9673 0010392 234.8208 125.2059 15.28844251 49357
Epoch: 2025-01-23T11:23Z
Definitive object data (Epoch: 2025-01-23T11:23:11.569Z)
Latitude-0.00001°
Longitude-140.88234°
Altitude486.48 km
Speed7.62 km/s
True Right ascension10h 11m 52s
True Declination0° 00' 00"
Sunlit
Object was in full shadow at TLE epoch
Visualization TLE readout
Latitude52.29313°
Longitude49.08268°
Altitude489.84 km
Speed7.624 km/s
Apparent Right ascension02h 44m 21s
Apparent Declination13° 31' 26"
Sunlit
Object is in daylight
Visualization observer readout
Local Sidereal Time17:51:51
Azimuth49.511° ENE
Elevation-21.083°
Doppler factor1
Orbital elements
Apogee altitude483.347 km
Perigee altitude469.101 km
Semi-major axis6,854.361 km
Eccentricity0.0010392
Inclination97.4952°
RAAN152.9673°
Arg. of periapsis234.8208°
True anomaly125.30313°
Mean anomaly125.2059°
Eccentric anomaly125.25452°
Mean motion3.82466 °/min
BSTAR0.00088897
Orbital period94.13 mins
Loading maneuver chart data...
Loading historical data...
Loading historical data...
Loading historical data...
Loading historical data...
Loading historical data...
Loading historical data...
Loading historical data...

NUSAT-44 MARIA MITCHELL Visibility forecast

Observer location: undefined°, undefined

Span
Click to sort rows by Start time (UTC) header in descending order
Start Az.
Max El. time (UTC)
Max El. Az.
Max El.
End time (UTC)
End Az.
6 mins2025-01-23 21:22:15.388Z12.158° NNE2025-01-23 21:25:15.388Z27.926° NE44.994°2025-01-23 21:28:15.388Z192.912° SSW
4 mins2025-01-24 07:58:15.388Z106.088° ESE2025-01-24 07:59:15.388Z77.701° E25.743°2025-01-24 08:02:15.388Z13.206° NNE
|